User: anonymous   Login
Location: Unspecified
(0.0000°N, 0.0000°E)
Time: 01:54:27
(UTC+02:00)
Language:

Cosmos 1933 - Orbit

View from above orbital plane
View from above orbital plane
View from above satellite
View from above satellite

Ground track
Ground track

The orbit data is extracted from the following two-line orbital elements,

1 18958U 88020A   16271.78966229  .00001048  00000-0  75657-4 0  9992
2 18958  82.5326 356.9999 0013242  94.7794 265.4944 15.03028194552112
Epoch (UTC): 27 September 2016 18:57:06
Eccentricity: 0.0013242
inclination: 82.5326°
perigee height: 548 km
apogee height: 567 km
right ascension of ascending node: 356.9999°
argument of perigee: 94.7794°
revolutions per day: 15.03028194
mean anomaly at epoch: 265.4944°
orbit number at epoch: 55211

The dashed part of the orbit path shows where the satellite is in the earth's shadow,  

DLR